Regional Weather Roundup
Issued by NWS Kansas City/Pleasant Hill, MO

Home | Current Version | Previous Version | Graphics & Text | Print | Product List | Glossary Off
Versions: 1 2 3 4 5 6 7 8 9 10 11 12 13 14 15 16 17 18 19 20 21 22 23 24 25 26 27 28 29 30 31 32 33 34 35 36 37 38 39 40 41 42 43 44 45 46 47 48 49 50

000
ASUS43 KEAX 012211
RWREAX

WEATHER ROUNDUP FOR EASTERN KANSAS AND NORTHWEST MISSOURI
NATIONAL WEATHER SERVICE KANSAS CITY/PLEASANT HILL MO
500 PM CDT MON SEP 01 2014

KSZ040-057-103>105-MOZ028-029-037-043-012300-
...KANSAS CITY METROPOLITAN AREA...

CITY           SKY/WX    TMP DP  RH WIND       PRES   REMARKS
K.C. INTL      CLOUDY    77  68  73 W6        29.89S
K.C. DOWNTOWN  CLOUDY    80  68  66 W5        29.87S
LEES SUMMIT    CLOUDY    77  68  73 SW5       29.89S
OLATHE - IXD   CLOUDY    77  67  71 SW6       29.89F
OLATHE - OJC   CLOUDY    76  68  76 S3        29.88F
LAWRENCE       CLOUDY   N/A N/A N/A CALM      29.88S

$$

MOZ001>008-011>017-020>025-030>033-038>040-044>046-053-054-012300-
...NORTHERN AND CENTRAL MISSOURI...

CITY           SKY/WX    TMP DP  RH WIND       PRES   REMARKS
ST. JOSEPH     MOSUNNY   80  67  64 W7        29.87S
MOSBY          CLOUDY    79  68  69 CALM      29.87S
WHITEMAN AFB   CLOUDY    79  68  69 NW5       29.87F THUNDER
CLINTON        CLOUDY    79  70  73 CALM      29.88F THUNDER
SEDALIA        CLOUDY    79  67  66 S3        29.89F
WARSAW         NOT AVBL
MARSHALL       CLOUDY    82  70  65 W3        29.89S HAZE
CHILLICOTHE      N/A     81  68  64 VRB3      29.88S
MOBERLY        MOSUNNY   82  66  57 W8        29.89F
KIRKSVILLE     MOSUNNY   79  67  66 SW10      29.88S

$$

MOZ041-047>049-056>058-063>065-088>090-097-012300-
...EASTERN AND SOUTHERN MISSOURI...

CITY           SKY/WX    TMP DP  RH WIND       PRES   REMARKS
ST. LOUIS INTL MOSUNNY   86  66  51 W9        29.91R
SPIRIT OF STL  MOSUNNY   84  66  54 W6        29.89S
COLUMBIA       PTSUNNY   82  67  60 W9        29.90S
JEFFERSON CITY CLOUDY    82  65  56 W3        29.88F
MEXICO         PTSUNNY   82  72  69 W6        29.90S
HANNIBAL       PTSUNNY   81  64  57 SW7       29.88S
ROLLA          CLOUDY    79  67  66 CALM      29.91F
LEBANON        PTSUNNY   82  66  57 S10       29.92S
OSAGE BEACH    CLOUDY    82  66  57 CALM      29.89F
SPRINGFIELD    MOSUNNY   86  68  54 S15       29.89F
BRANSON        PTSUNNY   86  70  58 S8G17     29.92F HX  90
NEVADA         LGT RAIN  79  72  78 CALM      29.88S
JOPLIN         CLOUDY    87  71  58 S13       29.85F HX  93
WEST PLAINS    SUNNY     85  68  56 S14G20    29.94F

$$

IAZ060-094-KSZ022-034>040-054-083-096-NEZ052-066-093-012300-
...KANSAS...SOUTHEAST NEBRASKA AND IOWA...

CITY           SKY/WX    TMP DP  RH WIND       PRES   REMARKS
TOPEKA         CLOUDY    79  69  71 NW3       29.88S
MANHATTAN      CLOUDY    79  66  64 CALM      29.87F
EMPORIA        CLOUDY    76  68  76 NE6       29.88F
CHANUTE        CLOUDY    82  71  69 S7        29.86S
WICHITA        PTSUNNY   86  70  58 NE13      29.81F HX  90
OMAHA          PTSUNNY   77  60  55 N7        29.86F
LINCOLN        CLOUDY    77  61  57 SW8       29.89S
FALLS CITY     MOSUNNY   81  62  52 N5        29.87S
LAMONI         MOSUNNY   75  65  70 SW9       29.88R
DES MOINES     PTSUNNY   79  62  56 NW12      29.82F

$$



USA.gov is the U.S. government's official web portal to all federal, state and local government web resources and services.